Wetterstation Vettwei-Soller: Standort 50 43' 54" Nord - 6 33' 24" Ost
Wetterdaten: aktuell Samstag, 16.10.2021 22:45
Datum Zeit Temp. A. Temp. A. min Temp. A. max Feuchte A. Luftdruck Regen Wind Richtung Richtung Sonnenschein Zeit Regen ET UV Solar Taupunkt Windchill Windben
16.10.2021 22:45 6,3 C 6,3 C 6,4 C 88 % 1022,7 hPa 0,0 l/m 1,8 km/h (1 Bft) NW 305 0 min 0 min 0,000 mm 0,0 UV-I 0 W/m 4,5 C 6,3 C 4,8 km/h (1 Bft)
16.10.2021 22:30 6,4 C 6,4 C 6,8 C 88 % 1022,7 hPa 0,0 l/m 2,6 km/h (1 Bft) NW 309 0 min 0 min 0,000 mm 0,0 UV-I 0 W/m 4,6 C 6,4 C 4,8 km/h (1 Bft)
16.10.2021 22:15 6,8 C 6,8 C 7,5 C 87 % 1022,7 hPa 0,0 l/m 2,8 km/h (1 Bft) N 5 0 min 0 min 0,000 mm 0,0 UV-I 0 W/m 4,8 C 6,8 C 4,8 km/h (1 Bft)
16.10.2021 22:00 7,5 C 7,5 C 8,0 C 86 % 1022,6 hPa 0,0 l/m 1,9 km/h (1 Bft) N 5 0 min 0 min 0,000 mm 0,0 UV-I 0 W/m 5,3 C 7,5 C 4,8 km/h (1 Bft)
16.10.2021 21:45 7,9 C 7,9 C 8,2 C 86 % 1022,7 hPa 0,0 l/m 1,3 km/h (1 Bft) N 5 0 min 0 min 0,000 mm 0,0 UV-I 0 W/m 5,7 C 7,9 C 4,8 km/h (1 Bft)
16.10.2021 21:30 8,1 C 8,1 C 8,5 C 86 % 1022,7 hPa 0,0 l/m 1,3 km/h (1 Bft) N 5 0 min 0 min 0,000 mm 0,0 UV-I 0 W/m 5,9 C 8,1 C 4,8 km/h (1 Bft)
16.10.2021 21:15 8,4 C 8,4 C 8,6 C 85 % 1022,7 hPa 0,0 l/m 0,2 km/h (0 Bft) N 5 0 min 0 min 0,000 mm 0,0 UV-I 0 W/m 6,0 C 8,4 C 1,6 km/h (1 Bft)
16.10.2021 21:00 8,5 C 8,4 C 8,7 C 85 % 1022,7 hPa 0,0 l/m 1,0 km/h (0 Bft) N 5 0 min 0 min 0,000 mm 0,0 UV-I 0 W/m 6,1 C 8,5 C 3,2 km/h (1 Bft)
16.10.2021 20:45 8,7 C 8,6 C 8,8 C 85 % 1022,6 hPa 0,0 l/m 1,6 km/h (1 Bft) N 5 0 min 0 min 0,000 mm 0,0 UV-I 0 W/m 6,3 C 8,7 C 3,2 km/h (1 Bft)
16.10.2021 20:30 8,8 C 8,8 C 9,2 C 85 % 1022,4 hPa 0,0 l/m 1,1 km/h (1 Bft) N 5 0 min 0 min 0,000 mm 0,0 UV-I 0 W/m 6,4 C 8,8 C 3,2 km/h (1 Bft)
16.10.2021 20:15 9,2 C 9,2 C 9,5 C 84 % 1022,5 hPa 0,0 l/m 1,2 km/h (1 Bft) N 5 0 min 0 min 0,000 mm 0,0 UV-I 0 W/m 6,6 C 9,2 C 3,2 km/h (1 Bft)
16.10.2021 20:00 9,5 C 9,5 C 9,8 C 82 % 1022,5 hPa 0,0 l/m 0,5 km/h (0 Bft) N 5 0 min 0 min 0,026 mm 0,0 UV-I 0 W/m 6,6 C 9,5 C 3,2 km/h (1 Bft)
16.10.2021 19:45 9,8 C 9,7 C 9,8 C 82 % 1022,4 hPa 0,0 l/m 1,2 km/h (1 Bft) N 5 0 min 0 min 0,000 mm 0,0 UV-I 0 W/m 6,9 C 9,8 C 3,2 km/h (1 Bft)
16.10.2021 19:30 9,7 C 9,7 C 9,8 C 82 % 1022,4 hPa 0,0 l/m 1,5 km/h (1 Bft) N 5 0 min 0 min 0,000 mm 0,0 UV-I 0 W/m 6,8 C 9,7 C 4,8 km/h (1 Bft)
16.10.2021 19:15 9,8 C 9,8 C 10,2 C 82 % 1022,5 hPa 0,0 l/m 1,3 km/h (1 Bft) N 5 0 min 0 min 0,000 mm 0,0 UV-I 0 W/m 6,9 C 9,8 C 3,2 km/h (1 Bft)
16.10.2021 19:00 10,2 C 10,2 C 10,4 C 79 % 1022,6 hPa 0,0 l/m 0,0 km/h (0 Bft) N 5 0 min 0 min 0,000 mm 0,0 UV-I 0 W/m 6,7 C 10,2 C 1,6 km/h (1 Bft)
16.10.2021 18:45 10,4 C 10,4 C 10,8 C 77 % 1022,5 hPa 0,0 l/m 0,0 km/h (0 Bft) N 5 0 min 0 min 0,000 mm 0,0 UV-I 0 W/m 6,5 C 10,4 C 0,0 km/h (0 Bft)
16.10.2021 18:30 10,8 C 10,8 C 11,1 C 75 % 1022,5 hPa 0,0 l/m 0,0 km/h (0 Bft) N 5 0 min 0 min 0,000 mm 0,0 UV-I 0 W/m 6,5 C 10,8 C 0,0 km/h (0 Bft)
16.10.2021 18:15 11,0 C 10,9 C 11,3 C 72 % 1022,5 hPa 0,0 l/m 0,0 km/h (0 Bft) N 5 0 min 0 min 0,025 mm 0,0 UV-I 7 W/m 6,2 C 11,0 C 0,0 km/h (0 Bft)
16.10.2021 18:00 11,3 C 11,2 C 11,7 C 70 % 1022,5 hPa 0,0 l/m 0,2 km/h (0 Bft) N 5 0 min 0 min 0,000 mm 0,0 UV-I 14 W/m 6,0 C 11,3 C 3,2 km/h (1 Bft)
16.10.2021 17:45 11,7 C 11,6 C 11,8 C 66 % 1022,4 hPa 0,0 l/m 1,7 km/h (1 Bft) N 5 0 min 0 min 0,000 mm 0,0 UV-I 26 W/m 5,6 C 11,7 C 4,8 km/h (1 Bft)
16.10.2021 17:30 11,8 C 11,7 C 11,8 C 69 % 1022,5 hPa 0,0 l/m 1,2 km/h (1 Bft) O-NO 63 0 min 0 min 0,000 mm 0,0 UV-I 37 W/m 6,3 C 11,8 C 4,8 km/h (1 Bft)
16.10.2021 17:15 11,7 C 11,7 C 11,8 C 71 % 1022,5 hPa 0,0 l/m 1,7 km/h (1 Bft) O-NO 69 0 min 0 min 0,000 mm 0,0 UV-I 51 W/m 6,6 C 11,7 C 4,8 km/h (1 Bft)
16.10.2021 17:00 11,7 C 11,7 C 12,1 C 70 % 1022,4 hPa 0,0 l/m 2,2 km/h (1 Bft) O-NO 69 0 min 0 min 0,076 mm 0,0 UV-I 65 W/m 6,4 C 11,7 C 6,4 km/h (2 Bft)
16.10.2021 16:45 12,1 C 11,8 C 12,1 C 69 % 1022,4 hPa 0,0 l/m 2,9 km/h (1 Bft) O-NO 67 0 min 0 min 0,000 mm 0,0 UV-I 88 W/m 6,6 C 12,1 C 6,4 km/h (2 Bft)
16.10.2021 16:30 12,1 C 12,1 C 12,3 C 71 % 1022,5 hPa 0,0 l/m 3,1 km/h (1 Bft) O-NO 72 0 min 0 min 0,000 mm 0,0 UV-I 109 W/m 7,0 C 12,1 C 8,0 km/h (2 Bft)
16.10.2021 16:15 12,2 C 12,2 C 12,6 C 70 % 1022,6 hPa 0,0 l/m 3,0 km/h (1 Bft) O-NO 67 0 min 0 min 0,102 mm 0,5 UV-I 128 W/m 6,9 C 12,2 C 8,0 km/h (2 Bft)
16.10.2021 16:00 12,4 C 12,4 C 12,6 C 68 % 1022,7 hPa 0,0 l/m 3,0 km/h (1 Bft) O-NO 64 0 min 0 min 0,000 mm 0,6 UV-I 151 W/m 6,7 C 12,4 C 8,0 km/h (2 Bft)
16.10.2021 15:45 12,6 C 12,6 C 12,7 C 65 % 1022,7 hPa 0,0 l/m 3,1 km/h (1 Bft) NO 36 0 min 0 min 0,000 mm 0,6 UV-I 153 W/m 6,2 C 12,6 C 6,4 km/h (2 Bft)
16.10.2021 15:30 12,7 C 12,6 C 12,8 C 65 % 1022,8 hPa 0,0 l/m 3,4 km/h (1 Bft) N-NO 24 0 min 0 min 0,000 mm 0,7 UV-I 185 W/m 6,3 C 12,7 C 8,0 km/h (2 Bft)
16.10.2021 15:15 12,7 C 12,7 C 13,0 C 65 % 1022,7 hPa 0,0 l/m 2,5 km/h (1 Bft) N-NO 21 15 min 0 min 0,000 mm 1,0 UV-I 264 W/m 6,3 C 12,7 C 6,4 km/h (2 Bft)
16.10.2021 15:00 13,0 C 12,4 C 13,2 C 66 % 1022,8 hPa 0,0 l/m 3,2 km/h (1 Bft) O-NO 69 0 min 0 min 0,178 mm 1,0 UV-I 213 W/m 6,8 C 13,0 C 9,7 km/h (2 Bft)
16.10.2021 14:45 12,4 C 12,2 C 12,5 C 67 % 1022,9 hPa 0,0 l/m 2,9 km/h (1 Bft) O-NO 65 0 min 0 min 0,000 mm 1,2 UV-I 236 W/m 6,4 C 12,4 C 8,0 km/h (2 Bft)
16.10.2021 14:30 12,5 C 12,5 C 13,1 C 65 % 1022,9 hPa 0,0 l/m 3,6 km/h (1 Bft) NO 36 0 min 0 min 0,000 mm 1,2 UV-I 229 W/m 6,1 C 12,5 C 8,0 km/h (2 Bft)
16.10.2021 14:15 12,6 C 12,5 C 12,8 C 65 % 1023,0 hPa 0,0 l/m 3,6 km/h (1 Bft) O-NO 67 15 min 0 min 0,000 mm 1,7 UV-I 434 W/m 6,2 C 12,6 C 9,7 km/h (2 Bft)
16.10.2021 14:00 12,6 C 12,4 C 12,8 C 66 % 1023,1 hPa 0,0 l/m 3,7 km/h (1 Bft) NO 54 15 min 0 min 0,228 mm 1,8 UV-I 446 W/m 6,4 C 12,6 C 9,7 km/h (2 Bft)
16.10.2021 13:45 12,7 C 12,3 C 12,7 C 67 % 1023,1 hPa 0,0 l/m 3,3 km/h (1 Bft) O-NO 67 15 min 0 min 0,000 mm 1,9 UV-I 457 W/m 6,7 C 12,7 C 11,3 km/h (2 Bft)
16.10.2021 13:30 12,7 C 12,2 C 12,7 C 66 % 1023,3 hPa 0,0 l/m 3,0 km/h (1 Bft) O 87 15 min 0 min 0,000 mm 1,9 UV-I 464 W/m 6,5 C 12,7 C 8,0 km/h (2 Bft)
16.10.2021 13:15 12,2 C 11,8 C 12,3 C 68 % 1023,5 hPa 0,0 l/m 2,6 km/h (1 Bft) O-NO 59 15 min 0 min 0,000 mm 1,9 UV-I 461 W/m 6,5 C 12,2 C 6,4 km/h (2 Bft)
16.10.2021 13:00 12,2 C 11,8 C 12,2 C 71 % 1023,7 hPa 0,0 l/m 3,6 km/h (1 Bft) O-NO 78 15 min 0 min 0,229 mm 1,8 UV-I 462 W/m 7,1 C 12,2 C 11,3 km/h (2 Bft)
16.10.2021 12:45 11,9 C 11,3 C 12,1 C 70 % 1023,7 hPa 0,0 l/m 4,0 km/h (1 Bft) O-NO 57 15 min 0 min 0,000 mm 1,8 UV-I 455 W/m 6,6 C 11,9 C 8,0 km/h (2 Bft)
16.10.2021 12:30 11,3 C 11,1 C 11,3 C 75 % 1023,8 hPa 0,0 l/m 2,2 km/h (1 Bft) O-SO 107 15 min 0 min 0,000 mm 1,7 UV-I 450 W/m 7,0 C 11,3 C 6,4 km/h (2 Bft)
16.10.2021 12:15 11,3 C 10,8 C 11,3 C 76 % 1023,8 hPa 0,0 l/m 2,0 km/h (1 Bft) O-SO 111 15 min 0 min 0,000 mm 1,6 UV-I 436 W/m 7,2 C 11,3 C 6,4 km/h (2 Bft)
16.10.2021 12:00 10,8 C 10,6 C 10,9 C 77 % 1023,9 hPa 0,0 l/m 3,6 km/h (1 Bft) O-SO 107 15 min 0 min 0,178 mm 1,5 UV-I 418 W/m 6,9 C 10,8 C 6,4 km/h (2 Bft)
16.10.2021 11:45 10,6 C 10,3 C 10,7 C 79 % 1023,8 hPa 0,0 l/m 3,0 km/h (1 Bft) O-SO 103 15 min 0 min 0,000 mm 1,4 UV-I 403 W/m 7,1 C 10,6 C 6,4 km/h (2 Bft)
16.10.2021 11:30 10,4 C 9,9 C 10,4 C 81 % 1023,8 hPa 0,0 l/m 2,5 km/h (1 Bft) O-SO 106 15 min 0 min 0,000 mm 1,3 UV-I 376 W/m 7,3 C 10,4 C 6,4 km/h (2 Bft)
16.10.2021 11:15 9,9 C 9,6 C 10,0 C 83 % 1024,0 hPa 0,0 l/m 1,9 km/h (1 Bft) O-NO 76 15 min 0 min 0,000 mm 1,1 UV-I 353 W/m 7,2 C 9,9 C 4,8 km/h (1 Bft)
16.10.2021 11:00 9,6 C 9,2 C 9,7 C 84 % 1023,8 hPa 0,0 l/m 2,0 km/h (1 Bft) O 86 15 min 0 min 0,127 mm 1,0 UV-I 329 W/m 7,0 C 9,6 C 6,4 km/h (2 Bft)
16.10.2021 10:45 9,2 C 8,6 C 9,4 C 86 % 1023,8 hPa 0,0 l/m 1,3 km/h (1 Bft) SW 219 15 min 0 min 0,000 mm 0,8 UV-I 294 W/m 7,0 C 9,2 C 4,8 km/h (1 Bft)
16.10.2021 10:30 8,6 C 7,9 C 8,6 C 86 % 1023,9 hPa 0,0 l/m 0,9 km/h (0 Bft) W 261 15 min 0 min 0,000 mm 0,7 UV-I 265 W/m 6,4 C 8,6 C 3,2 km/h (1 Bft)
16.10.2021 10:15 7,9 C 7,2 C 7,9 C 89 % 1023,9 hPa 0,0 l/m 1,0 km/h (0 Bft) W 261 15 min 0 min 0,000 mm 0,5 UV-I 236 W/m 6,2 C 7,9 C 3,2 km/h (1 Bft)
16.10.2021 10:00 7,2 C 6,1 C 7,2 C 90 % 1023,8 hPa 0,0 l/m 1,9 km/h (1 Bft) W 261 15 min 0 min 0,051 mm 0,0 UV-I 213 W/m 5,7 C 7,2 C 3,2 km/h (1 Bft)
16.10.2021 09:45 6,1 C 5,3 C 6,1 C 91 % 1023,8 hPa 0,0 l/m 1,4 km/h (1 Bft) W 261 15 min 0 min 0,000 mm 0,0 UV-I 183 W/m 4,7 C 6,1 C 4,8 km/h (1 Bft)
16.10.2021 09:30 5,3 C 4,7 C 5,3 C 92 % 1023,7 hPa 0,0 l/m 1,5 km/h (1 Bft) W 261 15 min 0 min 0,000 mm 0,0 UV-I 148 W/m 4,1 C 5,3 C 3,2 km/h (1 Bft)
16.10.2021 09:15 4,7 C 4,0 C 4,7 C 92 % 1023,6 hPa 0,0 l/m 1,5 km/h (1 Bft) W 261 15 min 0 min 0,000 mm 0,0 UV-I 114 W/m 3,5 C 4,7 C 4,8 km/h (1 Bft)
16.10.2021 09:00 4,1 C 3,4 C 4,1 C 92 % 1023,6 hPa 0,0 l/m 1,3 km/h (1 Bft) W 261 15 min 0 min 0,025 mm 0,0 UV-I 81 W/m 2,9 C 4,1 C 4,8 km/h (1 Bft)
16.10.2021 08:45 3,4 C 3,1 C 3,4 C 92 % 1023,5 hPa 0,0 l/m 0,7 km/h (0 Bft) W 261 0 min 0 min 0,000 mm 0,0 UV-I 54 W/m 2,2 C 3,4 C 3,2 km/h (1 Bft)
16.10.2021 08:30 3,1 C 2,9 C 3,1 C 92 % 1023,4 hPa 0,0 l/m 0,8 km/h (0 Bft) W 261 0 min 0 min 0,000 mm 0,0 UV-I 21 W/m 1,9 C 3,1 C 3,2 km/h (1 Bft)
16.10.2021 08:15 2,9 C 2,8 C 2,9 C 92 % 1023,4 hPa 0,0 l/m 1,1 km/h (1 Bft) W 261 0 min 0 min 0,000 mm 0,0 UV-I 11 W/m 1,7 C 2,9 C 3,2 km/h (1 Bft)
16.10.2021 08:00 2,9 C 2,8 C 2,9 C 92 % 1023,3 hPa 0,0 l/m 1,6 km/h (1 Bft) W 261 0 min 0 min 0,000 mm 0,0 UV-I 0 W/m 1,7 C 2,9 C 4,8 km/h (1 Bft)
16.10.2021 07:45 2,9 C 2,9 C 3,0 C 92 % 1023,3 hPa 0,0 l/m 0,9 km/h (0 Bft) W-SW 258 0 min 0 min 0,000 mm 0,0 UV-I 0 W/m 1,7 C 2,9 C 4,8 km/h (1 Bft)
16.10.2021 07:30 2,9 C 2,9 C 3,2 C 92 % 1023,1 hPa 0,0 l/m 1,0 km/h (0 Bft) W-SW 258 0 min 0 min 0,000 mm 0,0 UV-I 0 W/m 1,7 C 2,9 C 3,2 km/h (1 Bft)
16.10.2021 07:15 3,2 C 3,2 C 3,3 C 92 % 1023,1 hPa 0,0 l/m 0,7 km/h (0 Bft) W-SW 258 0 min 0 min 0,000 mm 0,0 UV-I 0 W/m 2,0 C 3,2 C 3,2 km/h (1 Bft)
16.10.2021 07:00 3,3 C 3,3 C 3,5 C 92 % 1023,0 hPa 0,0 l/m 1,1 km/h (1 Bft) W-SW 258 0 min 0 min 0,000 mm 0,0 UV-I 0 W/m 2,1 C 3,3 C 3,2 km/h (1 Bft)
16.10.2021 06:45 3,5 C 3,5 C 3,7 C 92 % 1023,1 hPa 0,0 l/m 0,8 km/h (0 Bft) W-SW 258 0 min 0 min 0,000 mm 0,0 UV-I 0 W/m 2,3 C 3,5 C 3,2 km/h (1 Bft)
16.10.2021 06:30 3,7 C 3,6 C 3,8 C 92 % 1023,0 hPa 0,0 l/m 2,5 km/h (1 Bft) W-SW 258 0 min 0 min 0,000 mm 0,0 UV-I 0 W/m 2,5 C 3,7 C 4,8 km/h (1 Bft)
16.10.2021 06:15 3,8 C 3,8 C 4,0 C 92 % 1022,9 hPa 0,0 l/m 3,3 km/h (1 Bft) W-SW 257 0 min 0 min 0,000 mm 0,0 UV-I 0 W/m 2,6 C 3,8 C 8,0 km/h (2 Bft)
16.10.2021 06:00 3,9 C 3,8 C 3,9 C 92 % 1022,8 hPa 0,2 l/m 3,0 km/h (1 Bft) W-SW 244 0 min 15 min 0,000 mm 0,0 UV-I 0 W/m 2,7 C 3,9 C 8,0 km/h (2 Bft)
16.10.2021 05:45 3,9 C 3,9 C 4,0 C 92 % 1022,7 hPa 0,0 l/m 2,6 km/h (1 Bft) W-SW 252 0 min 0 min 0,000 mm 0,0 UV-I 0 W/m 2,7 C 3,9 C 4,8 km/h (1 Bft)
16.10.2021 05:30 4,0 C 3,9 C 4,2 C 92 % 1022,8 hPa 0,0 l/m 1,9 km/h (1 Bft) W-SW 252 0 min 0 min 0,000 mm 0,0 UV-I 0 W/m 2,8 C 4,0 C 4,8 km/h (1 Bft)
16.10.2021 05:15 4,1 C 4,1 C 4,3 C 92 % 1022,7 hPa 0,0 l/m 2,2 km/h (1 Bft) W-SW 252 0 min 0 min 0,000 mm 0,0 UV-I 0 W/m 2,9 C 4,1 C 4,8 km/h (1 Bft)
16.10.2021 05:00 4,3 C 4,3 C 4,6 C 92 % 1022,8 hPa 0,0 l/m 2,1 km/h (1 Bft) W-SW 253 0 min 0 min 0,000 mm 0,0 UV-I 0 W/m 3,1 C 4,3 C 4,8 km/h (1 Bft)
16.10.2021 04:45 4,6 C 4,6 C 4,7 C 92 % 1022,7 hPa 0,0 l/m 3,6 km/h (1 Bft) W-SW 248 0 min 0 min 0,000 mm 0,0 UV-I 0 W/m 3,4 C 4,6 C 6,4 km/h (2 Bft)
16.10.2021 04:30 4,7 C 4,7 C 4,8 C 92 % 1022,6 hPa 0,0 l/m 3,2 km/h (1 Bft) W-SW 250 0 min 0 min 0,000 mm 0,0 UV-I 0 W/m 3,5 C 4,7 C 6,4 km/h (2 Bft)
16.10.2021 04:15 4,7 C 4,7 C 4,8 C 92 % 1022,6 hPa 0,0 l/m 2,0 km/h (1 Bft) W-SW 242 0 min 0 min 0,000 mm 0,0 UV-I 0 W/m 3,5 C 4,7 C 4,8 km/h (1 Bft)
16.10.2021 04:00 4,8 C 4,8 C 5,1 C 92 % 1022,7 hPa 0,0 l/m 1,1 km/h (1 Bft) W-SW 242 0 min 0 min 0,000 mm 0,0 UV-I 0 W/m 3,6 C 4,8 C 3,2 km/h (1 Bft)
16.10.2021 03:45 5,1 C 5,1 C 5,3 C 92 % 1022,7 hPa 0,0 l/m 2,5 km/h (1 Bft) W-SW 242 0 min 0 min 0,000 mm 0,0 UV-I 0 W/m 3,9 C 5,1 C 4,8 km/h (1 Bft)
16.10.2021 03:30 5,3 C 5,3 C 5,7 C 91 % 1022,9 hPa 0,0 l/m 1,8 km/h (1 Bft) W-SW 238 0 min 0 min 0,000 mm 0,0 UV-I 0 W/m 4,0 C 5,3 C 4,8 km/h (1 Bft)
16.10.2021 03:15 5,6 C 5,6 C 5,6 C 92 % 1023,0 hPa 0,0 l/m 2,6 km/h (1 Bft) W-SW 244 0 min 0 min 0,000 mm 0,0 UV-I 0 W/m 4,4 C 5,6 C 6,4 km/h (2 Bft)
16.10.2021 03:00 5,6 C 5,6 C 5,7 C 92 % 1023,0 hPa 0,0 l/m 3,0 km/h (1 Bft) W-SW 250 0 min 0 min 0,000 mm 0,0 UV-I 0 W/m 4,4 C 5,6 C 6,4 km/h (2 Bft)
16.10.2021 02:45 5,7 C 5,7 C 5,8 C 91 % 1022,9 hPa 0,0 l/m 2,9 km/h (1 Bft) W-SW 243 0 min 0 min 0,000 mm 0,0 UV-I 0 W/m 4,3 C 5,7 C 8,0 km/h (2 Bft)
16.10.2021 02:30 5,7 C 5,7 C 6,1 C 91 % 1022,9 hPa 0,0 l/m 2,2 km/h (1 Bft) W-SW 239 0 min 0 min 0,000 mm 0,0 UV-I 0 W/m 4,3 C 5,7 C 6,4 km/h (2 Bft)
16.10.2021 02:15 6,1 C 5,8 C 6,1 C 92 % 1022,9 hPa 0,0 l/m 1,5 km/h (1 Bft) W-SW 239 0 min 0 min 0,000 mm 0,0 UV-I 0 W/m 4,9 C 6,1 C 6,4 km/h (2 Bft)
16.10.2021 02:00 5,9 C 5,9 C 6,3 C 91 % 1023,0 hPa 0,0 l/m 2,9 km/h (1 Bft) W-SW 239 0 min 0 min 0,000 mm 0,0 UV-I 0 W/m 4,5 C 5,9 C 4,8 km/h (1 Bft)
16.10.2021 01:45 6,3 C 6,1 C 6,3 C 91 % 1022,9 hPa 0,0 l/m 2,3 km/h (1 Bft) W-SW 240 0 min 0 min 0,000 mm 0,0 UV-I 0 W/m 4,9 C 6,3 C 4,8 km/h (1 Bft)
16.10.2021 01:30 6,2 C 5,6 C 6,2 C 91 % 1023,0 hPa 0,0 l/m 1,8 km/h (1 Bft) W-SW 240 0 min 0 min 0,000 mm 0,0 UV-I 0 W/m 4,8 C 6,2 C 3,2 km/h (1 Bft)
16.10.2021 01:15 5,6 C 5,6 C 5,6 C 91 % 1023,0 hPa 0,0 l/m 2,9 km/h (1 Bft) W-SW 240 0 min 0 min 0,000 mm 0,0 UV-I 0 W/m 4,2 C 5,6 C 6,4 km/h (2 Bft)
16.10.2021 01:00 5,6 C 5,5 C 5,8 C 91 % 1022,9 hPa 0,0 l/m 3,0 km/h (1 Bft) W-SW 240 0 min 0 min 0,000 mm 0,0 UV-I 0 W/m 4,2 C 5,6 C 6,4 km/h (2 Bft)
16.10.2021 00:45 5,7 C 5,7 C 6,0 C 91 % 1023,0 hPa 0,0 l/m 2,8 km/h (1 Bft) W-SW 240 0 min 0 min 0,000 mm 0,0 UV-I 0 W/m 4,3 C 5,7 C 4,8 km/h (1 Bft)
16.10.2021 00:30 6,0 C 6,0 C 6,5 C 90 % 1022,9 hPa 0,0 l/m 3,0 km/h (1 Bft) W-SW 240 0 min 0 min 0,000 mm 0,0 UV-I 0 W/m 4,5 C 6,0 C 6,4 km/h (2 Bft)
16.10.2021 00:15 6,4 C 6,1 C 6,4 C 91 % 1023,0 hPa 0,0 l/m 1,3 km/h (1 Bft) W-SW 257 0 min 0 min 0,000 mm 0,0 UV-I 0 W/m 5,0 C 6,4 C 4,8 km/h (1 Bft)
16.10.2021 00:00 6,1 C 6,1 C 6,2 C 90 % 1022,9 hPa 0,0 l/m 1,6 km/h (1 Bft) W-SW 257 0 min 0 min 0,000 mm 0,0 UV-I 0 W/m 4,6 C 6,1 C 4,8 km/h (1 Bft)
_ Min-Zeit 08:00 08:00 08:00 14:15 16:45 - 18:15 - - - - - - - 07:30 07:30 18:15
Minimum _ 2,8 C 2,8 C 2,9 C 65 % 1022,4 hPa - 0,0 km/h (0 Bft) - - - - - - - 1,7 C 2,9 C 0,0 km/h (0 Bft)
_ Max-Zeit 15:00 15:15 15:00 02:15 11:15 06:00 12:45 - - 09:00 06:00 13:00 13:15 13:30 11:30 15:00 13:00
Maximum _ 13,2 C 12,7 C 13,2 C 92 % 1024,0 hPa 0,2 l/m 4,0 km/h
O-NO (1 Bft)
- - 15 min 15 min 0,229 mm 1,9 UV-I 464 W/m 7,3 C 13,0 C 11,3 km/h
O (2 Bft)
Durchschnitt _ 8,0 C 7,8 C 8,1 C 83 % 1023,0 hPa #0,2 l/m 2,0 km/h (1 Bft) W-SW - #5:45 h #15 min. #1,245 mm 1,2 UV-I 232 W/m 5,1 C 8,0 C 5,2 km/h (1 Bft)